Weather History for Beaufort MCAS, SC

Change the Weather History Date:

Sunday, January 27, 2013

  Actual Average Record
Temperature  
Mean Temperature 48 °F -  
Max Temperature 57 °F 57 °F 81 °F (1950)
Min Temperature 39 °F 38 °F 17 °F (1940)
Degree Days  
Heating Degree Days 17    
Moisture  
Dew Point 37 °F    
Average Humidity 69    
Maximum Humidity 89    
Minimum Humidity 49    
Precipitation  
Precipitation 0.00 in - - ()
Sea Level Pressure  
Sea Level Pressure 30.44 in    
Wind  
Wind Speed 8 mph (ENE)    
Max Wind Speed 12 mph    
Max Gust Speed 17 mph    
Visibility 10 miles    
Events      
Averages and records for this station are not official NWS values.
T = Trace of Precipitation, MM = Missing Value Source: NWS Daily Summary

Daily Weather History Graph

Daily Weather History Graph

Search for Another Location

Airport:

Trip Planner

Search our weather history database for the weather conditions in past years. The results will help you decide how hot, cold, wet, or windy it might be!

Date:

Astronomy

Jan. 27, 2013 Rise Set
Actual Time 7:20 AM EST 5:51 PM EST
Civil Twilight 6:54 AM EST 6:17 PM EST
Nautical Twilight 6:24 AM EST 6:47 PM EST
Astronomical Twilight 5:55 AM EST 7:16 PM EST
Moon 6:38 PM EST (1/27) 7:16 AM EST (1/27)
Length of Visible Light 11h 23m
Length of Day
10h 31m
Full, 100% of the Moon is Illuminated
Jan 27
Full
Feb 3
Last Quarter
Feb 10
New
Feb 17
First Quarter
Feb 25
Full

Hourly Weather History & Observations

Time (EST) Temp. Windchill Dew Point Humidity Pressure Visibility Wind Dir Wind Speed Gust Speed Precip Events Conditions
12:56 AM 44.1 °F 40.8 °F 39.0 °F 82% 30.32 in 10.0 mi ENE 5.8 mph - N/A   Clear
1:56 AM 39.9 °F 34.5 °F 36.0 °F 86% 30.34 in 10.0 mi NE 8.1 mph - N/A   Clear
2:56 AM 41.0 °F 35.8 °F 36.0 °F 82% 30.35 in 10.0 mi NE 8.1 mph - N/A   Clear
3:56 AM 39.9 °F 33.9 °F 37.0 °F 89% 30.35 in 10.0 mi NE 9.2 mph - N/A   Clear
4:56 AM 39.9 °F 33.9 °F 36.0 °F 86% 30.38 in 10.0 mi NE 9.2 mph - N/A   Clear
5:56 AM 39.0 °F 31.8 °F 34.0 °F 82% 30.39 in 10.0 mi NE 11.5 mph - N/A   Clear
6:56 AM 39.0 °F 33.4 °F 33.1 °F 79% 30.41 in 10.0 mi ENE 8.1 mph - N/A   Clear
7:56 AM 39.0 °F 31.8 °F 33.1 °F 79% 30.43 in 10.0 mi NE 11.5 mph - N/A   Clear
8:56 AM 42.1 °F 36.1 °F 33.1 °F 70% 30.46 in 10.0 mi NE 10.4 mph - N/A   Clear
9:56 AM 46.0 °F 41.4 °F 34.0 °F 63% 30.47 in 10.0 mi ENE 9.2 mph - N/A   Clear
10:56 AM 51.1 °F - 37.0 °F 59% 30.49 in 10.0 mi ENE 11.5 mph - N/A   Mostly Cloudy
11:56 AM 52.0 °F - 37.9 °F 59% 30.48 in 10.0 mi ENE 9.2 mph - N/A   Overcast
12:56 PM 54.0 °F - 37.9 °F 55% 30.47 in 10.0 mi East 10.4 mph - N/A   Clear
1:56 PM 55.9 °F - 37.0 °F 49% 30.45 in 10.0 mi ESE 6.9 mph - N/A   Clear
2:56 PM 57.0 °F - 37.9 °F 49% 30.45 in 10.0 mi East 6.9 mph - N/A   Clear
3:56 PM 55.9 °F - 37.9 °F 51% 30.44 in 10.0 mi ESE 9.2 mph - N/A   Clear
4:56 PM 55.0 °F - 36.0 °F 49% 30.45 in 10.0 mi East 6.9 mph - N/A   Clear
5:56 PM 51.1 °F - 37.9 °F 61% 30.47 in 10.0 mi East 9.2 mph - N/A   Clear
6:56 PM 48.9 °F - 37.0 °F 64% 30.48 in 10.0 mi East 8.1 mph 16.1 mph N/A   Scattered Clouds
7:46 PM 48.2 °F - 37.4 °F 66% 30.48 in 10.0 mi East 9.2 mph - N/A   Mostly Cloudy
7:56 PM 48.0 °F - 37.0 °F 66% 30.49 in 10.0 mi ENE 8.1 mph - N/A   Mostly Cloudy
8:51 PM 46.4 °F 42.9 °F 37.4 °F 71% 30.48 in 10.0 mi ENE 6.9 mph - N/A   Scattered Clouds
8:56 PM 46.0 °F 41.9 °F 37.0 °F 71% 30.48 in 10.0 mi ENE 8.1 mph - N/A   Partly Cloudy
9:56 PM 45.0 °F 41.2 °F 36.0 °F 71% 30.48 in 10.0 mi ENE 6.9 mph - N/A   Clear
10:44 PM 46.4 °F 41.1 °F 37.4 °F 71% 30.47 in 10.0 mi ENE 11.5 mph 17.3 mph N/A   Mostly Cloudy
10:56 PM 46.0 °F 41.9 °F 37.9 °F 73% 30.47 in 10.0 mi ENE 8.1 mph - N/A   Mostly Cloudy
11:26 PM 44.6 °F 40.7 °F 37.4 °F 76% 30.47 in 10.0 mi ENE 6.9 mph - N/A   Scattered Clouds
11:56 PM 44.1 °F 39.5 °F 37.9 °F 79% 30.46 in 10.0 mi ENE 8.1 mph - N/A   Clear